Regional Weather Roundup
Issued by NWS Charleston, SC

Current Version | Previous Version | Graphics & Text | Print | Product List | Glossary On
Versions: 1 2 3 4 5 6 7 8 9 10 11 12 13 14 15 16 17 18 19 20 21 22 23 24 25 26 27 28 29 30 31 32 33 34 35 36 37 38 39 40 41 42 43 44 45 46 47 48 49 50
000 ASUS42 KCHS 021112 RWRCHS REGIONAL WEATHER ROUNDUP NATIONAL WEATHER SERVICE CHARLESTON SC 700 AM EDT WED SEP 02 2015 NOTE: "FAIR" INDICATES FEW OR NO CLOUDS BELOW 12,000 FEET WITH NO SIGNIFICANT WEATHER AND/OR OBSTRUCTIONS TO VISIBILITY. NOT ALL STATIONS ARE QUALITY CONTROLLED BY THE NATIONAL WEATHER SERVICE. USE DATA WITH CAUTION...ESPECIALLY DEWPOINT OBSERVATIONS. SCZ027-030-031-034>040-042>050-021200- ...SOUTHEAST SOUTH CAROLINA... CITY SKY/WX TMP DP RH WIND PRES REMARKS N CHARLESTON PTCLDY 75 73 93 N5 30.08R WATERFRONT PRK N/A 78 76 94 N5 30.05R MOUNT PLEASANT NOT AVBL JOHNS ISLAND FAIR 77 75 94 CALM 30.07S PINOPOLIS N/A 79 75 89 NW6 30.00R MONCKS CORNER FOG 75 73 94 CALM 30.09R VSB 3/4 SUMMERVILLE FOG 72 72 100 CALM 30.09R VSB 1/4 BEAUFORT MCAS PTCLDY 76 75 97 N5 30.08R BEAUFORT ARPT NOT AVBL HILTON HEAD IS PTCLDY 77 75 94 CALM 30.09 WALTERBORO NOT AVBL ALLENDALE NOT AVBL ...SOUTHERN MIDLANDS AND PEE DEE... CITY SKY/WX TMP DP RH WIND PRES REMARKS GEORGETOWN NOT AVBL KINGSTREE NOT AVBL ORANGEBURG PTCLDY 73 71 93 CALM 30.09R FOG BARNWELL FAIR 72 72 100 CALM 30.10R AIKEN FAIR 68 68 100 CALM 30.13S MANNING CLOUDY 70 70 100 CALM 30.09R COLUMBIA PTCLDY 73 69 87 CALM 30.08R SUMTER PTCLDY 74 72 92 SW2 30.07R FLORENCE PTCLDY 73 71 93 SW3 30.08R FOG MYRTLE BEACH CLEAR 75 70 83 CALM 30.09S N MYRTLE BEACH CLEAR 74 72 93 NW3 30.07R $$ GAZ063-065-086>088-099>101-113>116-118-119-134>141-150-021200- ...SOUTHEAST GEORGIA... CITY SKY/WX TMP DP RH WIND PRES REMARKS SAVANNAH ARPT CLOUDY 76 74 93 CALM 30.09R HUNTER AAF MOCLDY 76 76 100 N1 30.06R FORT STEWART CLOUDY 75 73 94 CALM 30.07R STATESBORO CLOUDY 74 32 21 CALM 30.09R SYLVANIA FOG 74 74 100 CALM 30.10R VSB 1/2 CLAXTON NOT AVBL ...CSRA...CENTRAL AND FAR SOUTHEAST GEORGIA... CITY SKY/WX TMP DP RH WIND PRES REMARKS THOMSON PTCLDY 68 68 100 CALM 30.15R AUGUSTA-BUSH PTCLDY 68 68 100 CALM 30.09R FOG AUGUSTA-DANIEL CLEAR 75 71 87 CALM 30.10R SWAINSBORO CLOUDY N/A N/A N/A CALM 30.10R VIDALIA CLOUDY 73 73 100 CALM 30.09S EASTMAN PTSUNNY 72 72 100 CALM 30.11S FOG HAZLEHURST FOG 76 76 100 CALM 30.08R VSB 1 ALMA CLOUDY 76 75 97 NW3 30.07R WAYCROSS CLOUDY 79 79 100 CALM 30.07R JESUP FAIR 77 77 100 CALM 30.07R BAXLEY CLOUDY 77 75 94 CALM 30.08R BRUNSWICK N/A 70 70 100 CALM 30.07R SAINT SIMONS MOCLDY 79 78 97 SW6 30.06R $$ SCZ027-028-034-036>038-045-046-048>050-GAZ119-141-021200- ...LAKE AND SUPPLEMENTAL COASTAL OBSERVATIONS... STATION/POSITION TIME TEMP WIND PRES WAVE SWELL AIR SEA DIR/SP/G HT/PER HT/PER/DIR (UTC) (F) (DEG/KT/KT) (MB) (FT/S) (FT/S/D) UPR LAKE MARION NOT AVBL WINYAH BAY NOT AVBL LAKE MURRAY 1000 77 260/ 3/ 4 1017.9R ACE BASIN NERRS NOT AVBL FORT PULASKI 1000 78 83 360/ 5/ 6 1018.3R SAPELO ISLAND 1000 77 190/ 2 1017.0S $$ ANZ835-935-AMZ111-154-330-350-352-354-370-450-454-472-021200- ...C-MAN AND BUOY OBSERVATIONS... STATION/POSITION TIME TEMP WIND PRES WAVE SWELL AIR SEA DIR/SP/G HT/PER HT/PER/DIR (UTC) (F) (DEG/KT/KT) (MB) (FT/S) (FT/S/D) BUOY 41004 1050 80 83 330/ 12/ 14 1017.5R 2/ 7 2/ 7 BUOY 41008 1050 83 84 200/ 6/ 8 1018.3R 2/ 9 2/100/ 9 FOLLY BEACH CMAN 1000 77 330/ 3/ 4 1018.0R CAPERS NEARSHORE 1008 80 350/ 8/ 12 1018.2R FRIPP NEARSHORE 1000 81 340/ 6/ 8 1017.7R STATION/POSITION TIME TEMP WIND PRES WAVE SWELL AIR SEA DIR/SP/G HT/PER HT/PER/DIR (UTC) (F) (DEG/KT/KT) (MB) (FT/S) (FT/S/D) 5E ST. MARYS GA 1021 85 N/A 2/ 7 FRYING PAN BUOY 1050 81 81 290/ 8/ 10 1018.4R 2/ 9 2/100/ 9 BUOY 41025 1050 80 83 320/ 10/ 12 1017.4R 2/ 9 2/200/ 9 CAPE LOOKOUT NC 1000 78 300/ 11/ 12 1017.2R BUOY 41002 1050 84 84 320/ 10/ 12 1017.5R 2/10 2/ 80/10 BUOY 41010 1020 84 85 150/ 2/ 4 1018.3R ST AUGUSTINE FL 1100 80 83 190/ 4/ 6 1018.9R $$

USA.gov is the U.S. government's official web portal to all federal, state and local government web resources and services.